RH
21 19 17 18 18 18 17 17 16 15 13 14 17 16 18 21 22 20 21 23 21 21 20 16 17 18 21 20 18 18 20 19 20 22 24 28 30 28 29 29 30 28 28 33 34
17 14 14 13 13 12 13 11 12 12 11 10 11 11 13 17 17 21 23 22 22 22 20 21 20 21 22 20 18 20 20 19 17 21 29 29 29 29 32 33 34 35 39 40 47
23 18 16 11 9 8 7 6 6 6 6 6 7 8 9 12 17 20 21 24 27 29 27 24 26 28 25 23 20 19 19 18 18 22 31 26 27 30 31 32 37 38 36 39 42
21 20 17 11 10 7 6 5 5 4 4 5 5 5 6 10 17 16 14 16 20 24 32 31 31 30 31 26 22 22 21 22 19 22 26 26 27 28 29 31 33 35 30 29 32
18 20 16 13 9 7 6 5 5 5 5 5 5 5 5 12 11 11 13 15 17 23 33 38 39 40 34 27 27 23 22 20 20 22 25 26 27 29 29 31 33 35 31 35 36
22 21 20 20 14 9 6 6 5 5 5 5 5 5 10 13 8 13 11 10 15 23 36 37 43 45 38 36 32 28 25 25 22 22 25 26 27 28 28 32 32 30 32 35 39
24 23 20 16 15 11 6 6 5 5 5 5 5 6 14 6 5 8 11 13 13 17 27 44 45 51 44 38 32 28 30 30 25 22 26 27 28 28 30 30 28 25 31 38 42
25 22 19 14 13 9 6 5 5 5 5 5 6 10 16 6 10 12 14 16 20 20 22 34 49 50 49 44 38 38 33 28 24 24 26 31 29 31 34 32 29 28 34 39 41
24 22 21 16 11 8 6 5 5 9 11 11 10 19 16 16 15 16 14 15 19 23 25 35 44 52 56 52 44 35 33 28 24 25 29 34 32 35 36 36 33 32 41 41 43
25 21 21 18 14 9 7 6 10 15 20 23 28 28 21 19 21 21 20 22 25 31 33 37 48 62 62 56 49 39 33 30 30 32 39 37 34 37 41 42 41 34 35 47 42
26 23 22 19 16 10 12 15 24 27 33 21 19 22 15 21 17 17 22 27 30 35 44 39 48 54 58 46 46 41 40 37 37 37 39 39 36 35 36 38 39 40 36 44 45
31 26 24 20 16 12 22 34 33 30 26 15 15 16 14 14 15 11 20 30 33 41 53 59 47 53 54 53 48 43 43 45 44 42 43 40 36 36 35 36 37 40 40 42 49
31 30 29 23 17 24 34 37 33 37 32 18 19 18 19 21 20 19 19 32 39 47 59 78 67 63 64 54 58 47 47 46 44 43 43 38 36 37 35 33 32 38 37 43 48
36 38 35 26 27 35 41 43 37 39 38 28 28 27 25 23 25 20 21 28 45 50 60 85 84 69 69 64 54 52 50 51 48 49 48 42 40 39 36 36 31 32 33 31 38
38 40 41 35 31 37 44 41 37 41 41 34 29 25 22 23 24 28 23 28 42 53 69 82 89 81 78 71 59 54 62 66 56 51 48 43 42 37 37 39 36 38 37 33 32
34 39 40 37 41 36 41 35 40 53 43 31 30 31 29 33 32 34 30 33 43 44 59 71 80 87 82 74 68 66 70 76 62 56 53 44 45 40 40 39 37 36 33 29 33
40 37 39 44 42 62 48 45 53 44 21 22 29 32 28 22 21 42 38 38 41 52 55 72 76 87 86 81 73 71 81 87 74 62 54 43 47 38 40 40 36 34 33 30 34
43 40 39 40 40 51 48 51 57 26 28 23 31 24 23 14 20 50 45 41 39 52 60 76 87 79 84 81 80 69 76 70 76 64 53 43 45 37 40 38 40 36 29 35 35
48 42 37 40 38 48 64 62 38 28 21 23 26 31 23 15 33 37 53 53 52 51 63 78 82 79 82 82 84 77 69 58 65 67 70 48 42 45 42 39 39 38 32 32 34
55 53 40 42 43 53 69 59 42 32 36 38 34 29 21 29 54 53 64 77 75 66 58 78 92 78 81 82 83 82 69 72 62 75 87 60 53 49 45 39 37 38 41 40 42
63 61 33 44 51 65 66 53 41 37 36 30 33 30 27 36 40 45 53 88 81 75 70 77 93 80 88 92 84 76 71 72 65 59 72 74 63 67 56 46 43 47 48 45 38
75 67 44 55 70 66 61 52 48 40 40 33 32 34 40 42 50 51 53 67 74 78 74 87 87 79 74 71 83 77 74 72 74 70 61 65 62 55 52 52 51 45 49 45 38
88 61 61 94 80 64 56 51 48 44 38 40 40 36 33 34 40 49 51 73 64 67 77 86 87 79 76 71 85 84 79 76 76 76 73 83 57 56 57 56 50 47 52 54 47
98 77 54 85 82 78 65 62 52 51 39 46 42 42 50 41 44 52 76 73 67 61 71 85 85 84 81 85 92 87 75 77 80 89 81 76 63 67 61 56 51 52 52 56 60
98 74 90 63 70 72 76 83 66 51 46 45 44 43 54 61 53 61 59 78 81 67 69 86 95 94 89 85 85 91 82 79 79 77 75 65 72 72 66 60 55 55 54 53 54
90 71 79 88 83 69 55 59 64 71 57 62 52 52 50 52 56 68 63 71 69 72 60 85 92 90 81 81 84 97 78 77 81 78 68 61 67 66 66 63 61 59 57 57 58
84 77 81 78 74 77 83 67 47 52 62 71 80 77 67 67 56 70 81 71 76 72 76 77 88 97 93 93 89 80 82 80 76 70 73 73 76 68 67 65 67 64 63 63 64